Theta_e
329 321 317 312 299 297 293 296 300 303 309 313 317 317 309 313 312 303 314 357 361 363 364 365 366 366 365 363 362 361 361 361 362 362 363 362 363 363 364 364 364 364 359 357 355 355 357 357 356
326 320 311 302 295 291 293 298 300 302 309 311 311 310 309 307 312 312 312 357 362 363 363 363 366 365 365 363 362 362 362 362 361 362 362 362 362 363 364 364 365 363 358 356 355 355 356 355 355
320 319 302 296 292 292 293 298 300 303 307 308 309 313 311 311 314 312 312 352 361 360 364 363 366 364 364 363 362 362 362 362 361 361 362 362 362 362 363 364 365 364 360 356 355 355 356 356 355
313 306 301 295 291 295 297 299 301 304 307 308 310 306 309 314 315 312 317 359 357 357 362 365 365 364 364 364 362 362 362 362 362 361 362 362 362 361 362 364 364 364 362 359 356 356 357 357 357
310 300 294 291 292 297 300 302 301 302 303 305 306 303 304 310 312 312 311 357 352 355 359 364 365 365 365 365 363 363 362 362 362 361 362 363 362 361 362 363 364 364 363 360 357 357 357 356 355
300 297 290 289 293 300 300 301 303 301 302 304 303 302 302 309 309 310 310 323 356 357 359 362 365 364 364 364 363 362 361 361 361 361 360 362 362 361 361 363 363 364 363 362 359 358 356 355 353
298 294 291 291 297 299 302 302 300 299 300 303 306 301 301 305 307 309 311 345 359 359 358 359 361 364 365 363 362 362 361 361 361 360 360 360 362 361 361 362 363 363 362 361 359 357 356 354 354
300 296 292 291 295 296 300 299 299 300 301 306 307 299 296 303 307 308 316 355 356 357 358 358 358 361 360 361 363 362 361 361 361 360 360 360 361 361 362 360 361 363 362 361 359 357 357 355 353
301 292 289 292 294 293 296 296 300 303 302 303 304 303 305 307 307 305 305 309 320 343 348 357 359 356 358 359 361 362 362 362 361 360 360 358 355 356 358 360 361 363 362 361 359 358 356 355 354
296 290 292 297 297 292 295 297 298 300 301 301 302 305 307 307 304 304 303 302 306 309 316 333 344 353 355 356 358 357 359 357 356 356 355 355 353 355 357 359 361 362 362 360 359 357 356 355 345
294 293 297 297 299 298 296 297 299 297 295 299 300 301 305 305 304 304 304 302 304 305 312 317 316 318 326 337 355 354 355 355 354 353 353 353 353 351 354 353 357 356 360 356 356 353 351 346 342
293 297 298 299 300 298 297 300 299 298 298 303 303 304 304 304 303 303 305 305 306 309 311 313 316 318 319 320 325 347 354 354 353 353 351 353 350 346 350 350 351 354 356 355 352 350 347 343 340
294 296 298 299 298 298 300 298 298 297 302 303 304 305 304 303 307 308 309 309 309 313 315 314 316 319 320 321 323 331 338 345 354 353 352 352 349 345 345 347 348 351 353 353 350 347 345 343 339
296 296 295 295 294 295 297 296 298 300 302 303 304 304 303 306 307 308 310 310 312 315 316 317 318 318 319 320 322 323 326 333 341 351 347 349 350 346 343 345 346 349 352 352 349 346 343 341 338
296 292 295 295 295 295 298 294 297 301 302 302 303 303 305 308 310 309 309 311 311 314 316 317 319 317 317 317 321 323 324 326 330 344 348 342 347 349 345 344 344 347 350 349 349 345 343 339 338
293 291 287 294 295 297 297 289 298 300 301 301 303 304 307 308 308 309 310 310 311 311 314 316 321 317 316 317 320 320 322 324 325 328 335 344 338 337 340 346 346 347 348 348 347 344 341 339 338
288 284 287 292 296 297 295 290 298 301 301 300 301 303 306 306 307 308 309 309 310 310 311 312 315 317 318 319 318 320 323 323 324 326 331 339 339 333 332 335 347 347 346 347 346 344 342 338 338
286 286 288 289 294 294 292 291 296 299 299 299 301 302 305 305 305 308 309 310 310 310 311 311 314 314 315 318 320 320 317 319 321 322 324 327 333 335 333 338 342 348 343 345 345 343 341 340 338
293 290 289 292 296 294 292 292 295 298 298 298 300 301 303 304 306 308 309 310 310 310 309 310 311 310 312 316 315 312 313 316 315 317 324 328 330 332 336 340 342 342 344 343 343 342 339 337 340
293 290 288 293 297 294 293 293 296 298 298 299 299 301 302 303 304 306 307 308 309 310 310 310 309 309 310 314 313 315 316 315 318 320 321 323 328 326 323 325 329 340 341 343 342 340 340 337 340
291 289 290 291 294 294 292 291 293 297 298 300 300 303 304 304 303 304 306 307 307 307 307 308 307 308 312 312 313 312 310 309 309 312 315 319 323 323 321 320 321 325 337 338 341 341 340 336 338
288 295 295 294 290 285 292 282 289 294 296 298 299 301 302 302 303 304 305 304 305 306 306 306 305 306 309 309 308 307 306 307 310 311 315 316 320 320 320 320 320 322 327 332 335 342 342 340 335
292 297 293 293 288 285 287 283 286 293 294 296 298 301 301 301 303 303 304 305 304 303 304 303 303 303 305 306 307 307 307 309 310 311 313 314 316 318 319 319 319 320 325 331 330 331 337 341 339
298 293 292 290 286 279 286 285 285 291 295 295 299 301 301 302 302 303 304 303 302 301 302 302 302 302 303 303 304 304 304 305 307 308 309 312 315 316 317 319 319 321 326 332 332 331 332 338 340
292 287 278 281 280 280 290 286 288 297 300 298 300 300 301 301 302 302 302 301 300 300 301 302 301 300 301 302 302 302 303 303 304 306 308 310 313 314 315 316 317 319 323 332 333 329 331 339 339
289 288 281 279 278 284 291 286 290 300 300 301 301 301 301 301 301 302 302 300 300 300 299 300 299 299 300 301 301 301 302 303 304 306 306 309 311 314 317 318 318 320 322 325 334 333 338 341 339
290 286 292 286 286 281 286 290 298 299 299 300 300 301 301 301 302 302 300 299 299 299 299 299 298 298 299 300 300 300 302 302 303 304 305 306 308 313 316 319 320 322 324 326 331 334 332 340 339
293 297 287 284 279 278 284 286 287 295 296 299 299 299 300 301 300 300 299 299 298 297 298 298 298 298 299 299 300 302 302 303 303 304 303 305 307 310 313 318 319 320 324 325 330 334 335 338 337
290 288 289 289 285 280 277 283 295 296 298 298 298 300 299 300 299 299 298 298 298 297 297 297 298 298 298 299 299 300 301 302 303 303 303 304 306 309 310 314 317 318 323 326 331 333 335 336 337
294 290 290 282 282 284 282 283 298 299 298 298 299 300 299 299 298 297 297 297 297 297 297 297 298 298 298 300 301 300 301 302 302 302 304 304 304 306 309 313 316 319 324 325 331 334 337 334 336
Wind_Speed
7 6 1 4 6 6 2 3 2 6 5 4 4 7 6 5 4 5 3 7 12 13 11 11 13 15 15 13 15 16 16 16 14 13 14 13 12 13 14 13 12 13 13 13 12 10 8 7 8
4 4 4 2 6 4 4 4 9 6 7 17 18 10 9 7 3 4 4 6 9 12 10 10 13 16 16 15 12 12 16 16 15 15 14 13 11 11 11 12 12 12 13 11 10 9 6 5 6
2 0 4 5 4 5 5 3 5 4 10 9 5 6 5 2 5 3 4 11 10 11 11 12 15 15 18 15 13 12 12 14 15 15 14 13 11 11 10 10 10 11 12 11 9 7 5 3 3
3 5 5 6 2 3 5 4 2 6 10 5 14 8 5 5 3 4 3 12 10 8 9 14 16 16 16 17 14 11 12 12 13 14 14 12 12 10 10 10 9 10 11 11 10 8 5 4 3
4 3 5 4 4 0 2 4 2 6 7 8 7 6 6 9 9 9 5 10 11 7 6 9 15 16 17 18 17 14 10 10 12 13 14 13 11 10 10 10 10 10 10 10 10 7 6 6 5
4 4 6 1 3 0 3 1 6 6 3 6 9 7 3 5 9 10 6 3 8 9 6 6 10 13 15 18 19 18 14 10 11 12 13 13 12 12 10 10 9 9 9 9 10 8 7 7 7
5 4 4 3 4 3 1 1 6 5 5 4 8 7 1 7 8 9 10 11 10 8 6 4 4 5 7 8 9 13 17 14 9 9 11 12 12 12 11 10 10 9 9 8 8 8 8 8 8
5 5 3 1 5 4 4 4 5 6 2 1 4 4 2 3 7 9 13 11 9 8 6 4 3 3 3 3 5 7 8 13 13 9 8 10 13 14 13 11 10 10 10 9 8 8 9 9 9
4 6 1 1 4 2 3 5 3 2 4 6 5 7 6 2 8 11 10 10 8 7 5 6 5 4 4 2 2 4 8 10 11 12 11 6 3 5 9 10 11 12 11 10 10 9 9 9 10
6 4 6 4 6 2 2 5 2 3 4 4 5 4 6 6 9 9 8 7 7 6 8 6 4 5 4 2 5 4 3 3 4 6 7 6 6 6 7 8 12 13 13 12 11 10 10 8 4
4 5 5 2 6 4 2 3 1 3 0 4 7 5 6 7 7 8 7 7 7 5 6 7 7 7 6 5 2 1 2 1 1 3 5 6 6 5 5 3 5 5 11 5 8 6 4 5 4
5 5 5 6 5 4 3 4 2 2 5 10 10 8 6 6 8 8 9 8 7 8 6 7 7 7 8 5 5 4 1 2 3 3 5 4 4 6 6 5 6 6 6 8 6 5 6 6 6
4 0 1 5 8 8 8 5 5 5 5 7 9 8 8 11 10 7 7 7 7 9 6 6 6 7 6 7 5 5 5 4 2 3 5 5 6 6 6 7 7 7 8 9 7 5 6 6 6
3 3 1 3 3 2 7 3 4 5 6 7 9 8 9 12 9 6 8 7 9 7 8 6 6 6 6 5 5 3 3 5 4 3 2 6 6 7 7 7 8 9 9 8 8 8 7 7 6
2 4 5 5 4 5 6 3 7 8 7 9 9 8 10 10 9 9 8 8 7 5 6 8 8 8 8 5 3 3 3 2 3 4 5 5 6 7 10 8 8 9 9 11 8 8 6 6 6
4 5 2 9 6 5 9 8 8 7 11 10 10 11 11 7 9 8 8 8 7 7 6 4 4 7 8 7 5 3 4 4 4 5 5 7 5 6 6 8 9 9 9 9 9 9 8 8 8
5 3 6 9 5 6 6 7 9 9 9 9 7 10 11 8 7 8 8 8 7 6 3 3 2 3 4 5 4 5 4 3 3 4 4 7 8 7 5 6 11 10 10 11 10 9 10 8 8
5 4 3 2 1 3 4 6 7 8 7 9 9 9 11 10 9 9 9 8 7 4 2 1 3 5 5 3 3 3 4 3 2 4 4 7 7 8 7 6 10 9 10 11 11 13 10 9 9
4 1 2 4 5 2 7 7 10 10 6 6 7 9 10 10 8 8 8 8 6 3 0 2 3 7 4 2 3 3 3 4 3 3 6 4 4 6 10 8 9 10 9 15 15 13 12 10 9
4 2 4 6 3 2 5 11 10 9 8 9 11 13 12 8 8 8 8 7 5 4 1 2 5 6 5 1 2 2 3 4 4 5 5 6 4 3 6 8 10 12 9 13 15 15 12 10 10
4 4 4 7 3 3 5 11 6 6 4 6 7 17 14 17 12 9 8 8 6 3 2 3 3 4 4 4 3 4 3 3 4 6 6 5 6 6 5 8 10 12 11 10 12 14 18 12 10
4 4 1 4 5 4 5 9 6 8 14 8 9 14 15 10 8 7 8 6 5 4 5 4 0 3 3 5 3 5 4 8 8 8 8 6 7 8 9 9 10 13 11 12 11 15 16 14 12
7 6 4 2 1 2 3 2 10 5 7 10 8 12 9 9 9 9 8 8 6 5 5 2 2 4 4 5 5 4 7 8 9 8 9 7 8 10 11 11 11 12 11 13 16 19 16 16 14
4 5 7 5 4 3 6 9 7 4 6 3 5 8 11 9 8 8 7 7 4 4 3 1 1 3 6 6 7 7 8 9 9 11 11 9 8 8 10 11 11 12 14 16 15 17 20 16 13
6 7 5 5 3 7 3 4 11 11 8 10 14 13 10 8 9 7 6 4 5 5 2 1 3 3 4 5 6 7 8 8 11 11 9 11 9 8 11 12 13 11 14 19 15 14 14 18 15
7 10 8 8 4 4 6 7 6 6 5 14 13 9 7 8 6 7 6 8 6 5 3 2 2 3 5 6 7 7 8 8 8 9 10 10 10 11 14 13 15 15 15 18 20 15 13 16 15
5 5 9 4 1 1 5 5 4 2 6 7 8 8 8 7 8 8 6 6 6 4 2 1 2 4 6 7 7 8 8 9 10 12 13 11 12 12 16 16 18 18 18 19 24 16 19 13 16
6 6 5 3 3 5 6 6 7 5 4 4 6 8 9 7 6 5 7 7 4 3 1 2 3 6 5 7 7 9 11 12 12 13 14 14 14 15 16 17 18 19 20 22 25 18 20 18 13
2 2 4 5 6 6 2 7 5 8 9 9 8 9 9 8 7 6 6 4 3 0 2 4 5 5 6 7 8 9 11 13 14 14 13 13 15 16 17 18 19 21 22 21 23 22 19 22 23
8 10 8 7 5 5 5 8 5 9 8 6 8 6 3 7 6 5 5 2 1 3 4 4 4 6 7 8 13 12 12 14 15 15 15 13 17 17 17 18 19 23 23 21 25 23 18 22 21
Wind_Direction
324 308 190 48 54 67 315 68 294 82 43 262 114 125 131 77 105 162 203 128 142 141 146 154 153 140 138 139 138 134 130 128 123 119 117 118 124 127 124 122 125 127 129 130 132 133 138 139 116
334 345 41 75 83 69 289 285 97 91 104 93 95 106 66 67 46 108 57 159 145 139 144 153 159 145 139 141 143 140 137 136 135 132 128 128 127 127 124 128 130 131 132 132 136 138 149 145 116
300 125 83 92 110 162 172 216 175 115 151 163 101 59 57 66 6 47 316 154 143 157 155 159 160 151 141 143 148 148 145 144 143 140 139 137 136 135 131 131 134 139 140 140 144 150 167 170 137
19 11 25 84 205 243 185 155 182 98 41 70 122 59 68 320 51 351 1 140 154 162 162 162 160 156 147 145 150 154 155 154 152 149 147 146 148 146 143 143 145 148 151 153 156 164 191 205 210
41 57 55 84 246 297 8 77 66 86 106 77 88 129 73 346 328 23 23 167 162 160 158 164 164 159 156 152 152 155 164 165 163 161 157 157 157 158 157 158 160 159 161 162 166 173 196 224 239
24 98 55 51 255 338 58 133 84 69 87 104 82 86 57 297 10 349 357 171 150 139 134 160 177 166 164 163 160 158 163 173 176 172 171 166 165 169 173 172 172 172 170 172 175 182 197 227 252
119 82 195 197 162 39 56 128 72 97 71 27 148 96 156 345 345 12 16 62 71 90 92 98 138 178 161 163 165 165 161 165 179 188 182 177 175 176 180 183 181 180 180 183 183 192 204 222 245
114 93 14 245 203 74 338 58 157 82 49 140 63 127 125 275 6 44 42 61 62 59 59 69 82 113 91 91 148 165 178 169 167 180 206 201 187 183 185 185 189 190 188 191 192 204 214 224 241
99 60 247 244 91 153 283 97 358 21 79 43 88 120 174 147 38 55 42 42 45 54 31 105 98 80 71 88 190 179 189 193 179 177 185 206 231 219 199 192 194 197 195 198 200 207 221 231 245
96 109 220 196 150 125 54 86 135 74 105 65 94 86 114 82 69 54 77 62 58 47 11 64 73 102 137 218 171 170 229 219 209 185 182 176 187 219 215 215 204 203 199 203 208 210 218 234 254
154 177 185 208 133 120 67 67 357 121 28 184 154 135 88 73 76 93 64 93 98 74 61 37 47 46 50 29 109 152 189 189 259 254 193 191 191 193 209 211 212 205 210 203 211 215 208 215 232
157 198 163 187 152 117 136 148 336 143 243 168 155 149 123 92 63 70 70 69 90 76 59 29 56 51 31 20 22 41 13 231 217 216 213 217 231 208 195 197 208 210 211 212 206 205 212 220 228
148 168 195 173 164 169 136 171 203 271 152 188 139 113 111 97 106 92 99 71 59 64 68 83 69 45 41 49 29 12 357 358 323 261 227 207 217 226 225 207 198 205 211 217 207 211 212 227 229
316 146 270 268 198 210 146 224 133 250 135 153 127 149 115 129 130 107 74 72 66 56 27 20 62 76 62 33 41 30 355 327 330 280 70 295 245 229 219 223 214 204 201 207 210 205 208 222 220
339 359 352 259 227 209 130 299 221 238 184 169 170 128 128 131 125 118 123 98 88 76 35 20 10 18 17 26 19 1 333 324 300 285 247 220 288 279 251 228 223 216 205 202 207 211 209 210 222
7 53 37 277 168 230 119 250 253 274 153 185 190 147 139 148 133 128 115 110 91 79 60 31 17 358 350 346 343 342 334 329 313 312 299 272 237 222 273 281 243 222 212 204 201 206 211 216 215
349 229 205 308 223 136 154 235 242 182 175 212 203 157 143 139 133 132 129 126 110 107 68 337 346 306 299 309 322 323 334 333 320 329 325 309 285 258 238 262 278 247 215 209 206 206 205 210 214
214 223 221 253 46 117 217 250 275 244 199 205 189 171 156 155 167 156 139 123 116 132 183 278 314 311 306 287 286 294 313 290 288 298 292 303 309 266 253 244 249 278 240 215 207 209 206 206 207
237 196 259 250 263 222 213 248 255 262 251 227 183 184 171 165 180 153 143 136 144 162 135 278 314 302 330 319 303 306 279 296 297 279 280 287 300 320 327 281 263 245 254 237 209 205 200 209 200
191 217 260 292 229 167 288 281 239 214 218 206 196 182 177 166 161 157 148 126 117 126 115 338 332 329 308 294 295 265 263 272 262 278 274 277 271 300 302 307 301 274 261 275 253 205 207 208 192
219 193 221 229 319 354 336 287 272 269 231 226 211 188 178 170 161 163 142 137 129 132 110 74 24 345 333 316 312 310 298 294 299 289 279 254 258 261 261 280 287 285 273 253 269 234 205 202 198
227 219 94 44 48 232 80 283 273 279 282 252 225 175 167 164 155 139 133 126 135 126 125 136 228 337 317 334 323 295 283 292 284 278 279 249 251 261 264 264 272 279 272 247 254 272 227 203 190
225 115 111 114 54 349 190 300 273 263 273 250 200 163 154 153 141 134 133 137 149 133 142 177 330 333 338 333 312 293 294 289 289 282 276 265 257 256 260 265 268 274 271 246 237 238 263 222 202
125 65 35 49 100 309 225 176 273 215 215 207 139 140 141 149 127 126 133 135 130 124 132 165 48 328 331 334 321 305 288 294 300 296 290 282 263 255 260 261 263 266 274 255 234 228 228 270 214
84 64 349 332 354 231 273 169 241 304 302 176 157 142 154 132 134 138 137 145 151 134 145 193 39 331 316 312 307 293 287 287 289 286 292 291 281 273 267 264 268 270 275 270 232 228 220 227 226
178 148 156 225 215 269 300 247 277 331 32 90 108 135 127 135 149 169 165 158 160 143 142 84 53 317 301 294 289 280 272 280 282 287 289 285 289 284 278 270 267 273 276 275 248 231 225 197 207
184 158 177 99 299 28 247 296 320 324 65 90 121 134 169 165 180 177 143 155 155 163 158 112 345 311 304 298 285 280 284 279 284 287 292 288 284 283 282 280 284 284 277 276 252 224 216 200 199
141 168 81 3 212 248 278 256 229 196 181 160 171 189 210 196 166 151 157 160 160 115 58 338 312 281 277 279 274 293 292 288 288 287 286 286 284 280 283 281 284 283 270 271 247 225 203 182 203
142 176 90 126 147 178 244 268 225 196 179 182 205 219 202 183 182 157 134 95 88 24 294 272 265 278 287 282 276 280 286 289 286 285 283 283 285 285 285 284 284 284 267 272 233 216 202 179 198
179 181 148 136 232 221 164 260 260 180 186 180 234 268 224 154 147 124 120 132 269 270 277 285 301 306 285 294 298 293 294 291 288 287 285 285 284 282 281 281 279 279 265 281 228 209 205 193 197